Flag for U.S.A. Weather past 2 weeks in Boise, Idaho, U.S.A.

Now
76 °F

Passing clouds.


Feels Like: 77 °F
Forecast: 67 / 85 °F
Wind: 9 mph from West

Location: Boise Air Terminal

Current Time: Sep 18, 2014 at 2:23:05 AM

Latest Report: Sep 18, 2014 at 1:53 AM


Visibility: 10 mi

Pressure: 29.61 "Hg

Humidity: 27%

Dew point: 40 °F

Location of BoiseLocation

Historic Weather in Boise — Graph

°F

Boise temperature yesterday

Maximum temperature yesterday: 92 °F (at 4:53 PM)
Minimum temperature yesterday: 69 °F (at 6:53 AM)
Average temperature yesterday: 79 °F

Past Weeks' High & Low Weather Summary

 TemperatureHumidityPressure
High92 °F (Sep 16, 3:53 PM)66% (Sep 16, 5:53 AM)30.24 "Hg (Sep 16, 5:53 AM)
Low45 °F (Sep 12, 5:53 AM)8% (Sep 12, 4:53 PM)29.59 "Hg (Sep 18, 12:53 AM)
Average68 °F29%29.92 "Hg
* Reported Sep 3 12:53 AM — Sep 18 12:53 AM, Boise, Weather by CustomWeather, © 2014

Note: Actual official high and low records may vary slightly from our data, if they occured in-between our weather recording intervals... More about our weather records

Advertising

Boise weather history for previous 24 hours

 ConditionsComfort  
Time TempWeatherWind HumidityBarometerVisibility
12:53 AM
Sep 18
79 °FPassing clouds.16 mph22%29.59 "Hg10 mi
11:53 PM
Sep 17
76 °FPassing clouds.No wind24%29.59 "Hg10 mi
10:53 PM75 °FClear.5 mph26%29.61 "Hg10 mi
9:53 PM75 °FClear.5 mph28%29.62 "Hg10 mi
8:53 PM79 °FSunny.No wind25%29.61 "Hg10 mi
7:53 PM86 °FSunny.5 mph20%29.60 "Hg10 mi
6:53 PM90 °FSunny.No wind15%29.61 "Hg10 mi
5:53 PM91 °FSunny.6 mph14%29.63 "Hg10 mi
4:53 PM92 °FSunny.6 mph14%29.65 "Hg10 mi
3:53 PM91 °FSunny.6 mph15%29.67 "Hg10 mi
2:53 PM91 °FSunny.5 mph16%29.70 "Hg10 mi
1:53 PM86 °FSunny.3 mph19%29.74 "Hg10 mi
12:53 PM85 °FSunny.No wind20%29.75 "Hg10 mi
11:53 AM80 °FSunny.5 mph26%29.77 "Hg10 mi
10:53 AM74 °FSunny.5 mph38%29.79 "Hg10 mi
9:53 AM73 °FSunny.No wind33%29.79 "Hg10 mi
8:53 AM70 °FClear.No wind37%29.78 "Hg10 mi
7:53 AM70 °FClear.6 mph37%29.75 "Hg10 mi
6:53 AM69 °FClear.5 mph38%29.74 "Hg10 mi
5:53 AM71 °FClear.9 mph35%29.72 "Hg10 mi
4:53 AM72 °FClear.12 mph34%29.72 "Hg10 mi
3:53 AM73 °FClear.12 mph33%29.71 "Hg10 mi
2:53 AM74 °FClear.10 mph32%29.72 "Hg10 mi
Weather by CustomWeather, © 2014

See weather overviewHow to use our weather pages